Previsão horária em Allenjoie

Hoje, 21 Janeiro, Quinta-feira

Tempo Temperatura Precipitação Vento Pressão Humidade
00:00 +3°C° 0 mm 2 m/s 720 mmHg 84%
01:00 +4°C° 0 mm 2 m/s 720 mmHg 82%
02:00 +3°C° 0 mm 3 m/s 720 mmHg 79%
03:00 +4°C° 0 mm 3 m/s 720 mmHg 76%
04:00 +4°C° 0 mm 3 m/s 720 mmHg 78%
05:00 +4°C° 0 mm 3 m/s 720 mmHg 80%
06:00 +4°C° 0 mm 4 m/s 720 mmHg 82%
07:00 +5°C° 0.1 mm 5 m/s 720 mmHg 83%
08:00 +5°C° 0.1 mm 6 m/s 720 mmHg 84%
09:00 +7°C° 0.1 mm 6 m/s 720 mmHg 85%
10:00 +7°C° 0.2 mm 6 m/s 720 mmHg 85%
11:00 +7°C° 0.2 mm 6 m/s 720 mmHg 86%
12:00 +7°C° 0.2 mm 6 m/s 720 mmHg 86%
13:00 +7°C° 0.2 mm 5 m/s 720 mmHg 87%
14:00 +7°C° 0.2 mm 5 m/s 719 mmHg 88%
15:00 +7°C° 0.2 mm 4 m/s 719 mmHg 88%
16:00 +7°C° 0.1 mm 4 m/s 719 mmHg 87%
17:00 +6°C° 0.1 mm 4 m/s 718 mmHg 86%
18:00 +7°C° 0.1 mm 3 m/s 718 mmHg 84%
19:00 +6°C° 0.8 mm 4 m/s 718 mmHg 87%
20:00 +6°C° 0.8 mm 4 m/s 718 mmHg 89%
21:00 +6°C° 0.8 mm 5 m/s 717 mmHg 91%
22:00 +6°C° 2.4 mm 5 m/s 717 mmHg 91%
23:00 +6°C° 2.4 mm 5 m/s 717 mmHg 92%

Amanhã, 22 Janeiro, Sexta-feira

Tempo Temperatura Precipitação Vento Pressão Humidade
00:00 +5°C° 2.4 mm 5 m/s 717 mmHg 92%
01:00 +5°C° 0.3 mm 5 m/s 717 mmHg 90%
02:00 +5°C° 0.3 mm 5 m/s 716 mmHg 88%
03:00 +5°C° 0.3 mm 5 m/s 716 mmHg 86%
04:00 +6°C° 0.1 mm 5 m/s 716 mmHg 87%
05:00 +5°C° 0.1 mm 6 m/s 715 mmHg 87%
06:00 +5°C° 0.1 mm 6 m/s 715 mmHg 87%
07:00 +6°C° 0.1 mm 5 m/s 715 mmHg 86%
08:00 +6°C° 0.1 mm 4 m/s 715 mmHg 85%
09:00 +8°C° 0.1 mm 3 m/s 714 mmHg 84%
10:00 +9°C° 0 mm 3 m/s 714 mmHg 80%
11:00 +10°C° 0 mm 4 m/s 714 mmHg 77%
12:00 +11°C° 0 mm 4 m/s 713 mmHg 74%
13:00 +9°C° 0.4 mm 3 m/s 713 mmHg 81%
14:00 +8°C° 0.4 mm 2 m/s 712 mmHg 87%
15:00 +8°C° 0.4 mm 1 m/s 712 mmHg 94%
16:00 +8°C° 0.8 mm 1 m/s 712 mmHg 94%
17:00 +7°C° 0.8 mm 1 m/s 713 mmHg 95%
18:00 +7°C° 0.8 mm 1 m/s 713 mmHg 96%
19:00 +5°C° 1 mm 2 m/s 714 mmHg 96%
20:00 +4°C° 1 mm 3 m/s 714 mmHg 96%
21:00 +3°C° 1 mm 4 m/s 715 mmHg 97%
22:00 +1°C° 1 mm 4 m/s 715 mmHg 96%
23:00 +1°C° 1 mm 4 m/s 716 mmHg 96%

Depois de amanhã, 23 Janeiro, Sábado

Tempo Temperatura Precipitação Vento Pressão Humidade
00:00 0°C° 1 mm 4 m/s 717 mmHg 95%
01:00 0°C° 0.3 mm 4 m/s 717 mmHg 95%
02:00 +1°C° 0.3 mm 3 m/s 717 mmHg 96%
03:00 +1°C° 0.3 mm 3 m/s 718 mmHg 96%
04:00 +1°C° 0 mm 3 m/s 718 mmHg 95%
05:00 +2°C° 0 mm 2 m/s 718 mmHg 93%
06:00 +2°C° 0 mm 2 m/s 718 mmHg 92%
07:00 +2°C° 0.1 mm 2 m/s 718 mmHg 91%
08:00 +2°C° 0.1 mm 2 m/s 717 mmHg 89%
09:00 +3°C° 0.1 mm 2 m/s 717 mmHg 88%
10:00 +3°C° 0 mm 2 m/s 717 mmHg 86%
11:00 +4°C° 0 mm 2 m/s 716 mmHg 84%
12:00 +5°C° 0 mm 2 m/s 716 mmHg 81%
13:00 +5°C° 0 mm 2 m/s 715 mmHg 82%
14:00 +6°C° 0 mm 1 m/s 715 mmHg 82%
15:00 +6°C° 0 mm 1 m/s 715 mmHg 82%
16:00 +5°C° 0.2 mm 1 m/s 715 mmHg 86%
17:00 +4°C° 0.2 mm 1 m/s 715 mmHg 91%
18:00 +3°C° 0.2 mm 1 m/s 715 mmHg 95%
19:00 +3°C° 0.3 mm 1 m/s 715 mmHg 96%
20:00 +2°C° 0.3 mm 2 m/s 716 mmHg 96%
21:00 +2°C° 0.3 mm 2 m/s 716 mmHg 97%
22:00 +1°C° 0.5 mm 3 m/s 716 mmHg 97%
23:00 -1°C° 0.5 mm 5 m/s 717 mmHg 96%

24 Janeiro, Domingo

Tempo Temperatura Precipitação Vento Pressão Humidade
00:00 -2°C° 0.5 mm 6 m/s 717 mmHg 96%
01:00 -1°C° 0.6 mm 5 m/s 717 mmHg 96%
02:00 -2°C° 0.6 mm 5 m/s 718 mmHg 96%
03:00 -2°C° 0.6 mm 4 m/s 718 mmHg 96%
04:00 -2°C° 0.3 mm 4 m/s 719 mmHg 96%
05:00 -2°C° 0.3 mm 4 m/s 719 mmHg 95%
06:00 -1°C° 0.3 mm 3 m/s 720 mmHg 95%
07:00 -1°C° 0 mm 3 m/s 720 mmHg 94%
08:00 -1°C° 0 mm 2 m/s 720 mmHg 92%
09:00 -1°C° 0 mm 2 m/s 720 mmHg 91%
10:00 +1°C° 0 mm 2 m/s 720 mmHg 86%
11:00 +1°C° 0 mm 2 m/s 720 mmHg 81%
12:00 +3°C° 0 mm 1 m/s 719 mmHg 76%
13:00 +3°C° 0 mm 1 m/s 719 mmHg 80%
14:00 +3°C° 0 mm 1 m/s 718 mmHg 83%
15:00 +3°C° 0 mm 1 m/s 718 mmHg 87%
16:00 +1°C° 0.2 mm 2 m/s 718 mmHg 89%
17:00 +1°C° 0.2 mm 2 m/s 718 mmHg 91%
18:00 -1°C° 0.2 mm 3 m/s 718 mmHg 93%
19:00 -2°C° 0.7 mm 4 m/s 719 mmHg 94%
20:00 -2°C° 0.7 mm 4 m/s 719 mmHg 95%
21:00 -2°C° 0.7 mm 4 m/s 719 mmHg 96%
22:00 -2°C° 1.1 mm 4 m/s 719 mmHg 96%
23:00 -2°C° 1.1 mm 4 m/s 719 mmHg 96%

25 Janeiro, Segunda-feira

Tempo Temperatura Precipitação Vento Pressão Humidade
00:00 -2°C° 1.1 mm 4 m/s 720 mmHg 96%
01:00 -4°C° 0.5 mm 5 m/s 720 mmHg 96%
02:00 -4°C° 0.5 mm 5 m/s 721 mmHg 96%
03:00 -4°C° 0.5 mm 6 m/s 722 mmHg 95%
04:00 -4°C° 0.4 mm 6 m/s 722 mmHg 95%
05:00 -5°C° 0.4 mm 5 m/s 723 mmHg 95%
06:00 -5°C° 0.4 mm 5 m/s 724 mmHg 95%
07:00 -4°C° 0.2 mm 5 m/s 725 mmHg 94%
08:00 -4°C° 0.2 mm 5 m/s 726 mmHg 93%
09:00 -4°C° 0.2 mm 5 m/s 727 mmHg 92%
10:00 -4°C° 0.1 mm 5 m/s 727 mmHg 91%
11:00 -2°C° 0.1 mm 5 m/s 727 mmHg 89%
12:00 -2°C° 0.1 mm 5 m/s 727 mmHg 88%
13:00 -2°C° 0.4 mm 5 m/s 727 mmHg 89%
14:00 -3°C° 0.4 mm 6 m/s 727 mmHg 91%
15:00 -2°C° 0.4 mm 6 m/s 727 mmHg 92%
16:00 -2°C° 0.4 mm 6 m/s 728 mmHg 93%
17:00 -3°C° 0.4 mm 6 m/s 728 mmHg 94%
18:00 -3°C° 0.4 mm 6 m/s 729 mmHg 95%
19:00 -3°C° 0.3 mm 6 m/s 729 mmHg 95%
20:00 -2°C° 0.3 mm 5 m/s 730 mmHg 96%
21:00 -2°C° 0.3 mm 5 m/s 730 mmHg 97%
22:00 -2°C° 0.3 mm 4 m/s 730 mmHg 97%
23:00 -2°C° 0.3 mm 4 m/s 731 mmHg 96%

26 Janeiro, Terça-feira

Tempo Temperatura Precipitação Vento Pressão Humidade
00:00 -2°C° 0.3 mm 4 m/s 731 mmHg 96%
01:00 -1°C° 0.2 mm 3 m/s 731 mmHg 96%
02:00 -1°C° 0.2 mm 3 m/s 731 mmHg 96%
03:00 -1°C° 0.2 mm 3 m/s 731 mmHg 96%
04:00 -1°C° 0.3 mm 3 m/s 731 mmHg 97%
05:00 -1°C° 0.3 mm 3 m/s 731 mmHg 97%
06:00 -1°C° 0.3 mm 3 m/s 732 mmHg 98%
07:00 -1°C° 0.1 mm 3 m/s 732 mmHg 96%
08:00 -1°C° 0.1 mm 3 m/s 732 mmHg 95%
09:00 0°C° 0.1 mm 3 m/s 733 mmHg 94%
10:00 0°C° 0 mm 3 m/s 733 mmHg 95%
11:00 0°C° 0 mm 3 m/s 732 mmHg 95%
12:00 +1°C° 0 mm 3 m/s 732 mmHg 96%
13:00 +2°C° 0 mm 2 m/s 732 mmHg 96%
14:00 +2°C° 0 mm 2 m/s 732 mmHg 96%
15:00 +2°C° 0 mm 2 m/s 731 mmHg 96%
16:00 +1°C° 0 mm 2 m/s 731 mmHg 96%
17:00 +1°C° 0 mm 2 m/s 731 mmHg 95%
18:00 +1°C° 0 mm 2 m/s 731 mmHg 94%
19:00 +1°C° 0.4 mm 2 m/s 731 mmHg 95%
20:00 +1°C° 0.4 mm 2 m/s 731 mmHg 96%
21:00 +1°C° 0.4 mm 2 m/s 731 mmHg 97%
22:00 0°C° 0.5 mm 3 m/s 730 mmHg 97%
23:00 +1°C° 0.5 mm 3 m/s 730 mmHg 98%
Mostrar mais

Necessitamos do seu Consentimento

A Meteoprog e os seus Fornecedores de Serviços podem armazenar e aceder a dados pessoais como cookies, identificadores do dispositivo ou outras tecnologias semelhantes existentes no seu dispositivo e processar estes dados para personalizar conteúdos e anúncios, assim como funcionalidades nas redes sociais e análise de tráfego.

  • Armazenar e/ou aceder a informações no seu dispositivo

    Os cookies, identificadores do dispositivo ou outras informações podem ser armazenados ou acedidos no seu dispositivo, para os fins acima indicados.

  • Anúncios e conteúdos personalizados, medição de anúncios e conteúdos, dados sobre o público-alvo e desenvolvimento de produtos

    Os anúncios e os conteúdos podem ser personalizados com base num perfil. Podem ser adicionados dados adicionais para uma maior personalização dos anúncios e dos conteúdos. A eficácia dos anúncios e dos conteúdos pode ser medida. Podem ser obtidas informações sobre o público que visualizou os anúncios e os conteúdos. Estes dados podem ser usados para desenvolver ou melhorar sistemas, softwares ou a experiência do utilizador.

Ao clicar em "Eu concordo”, permitirá o uso de cookies, identificadores do dispositivo e web beacons mencionados ou outras tecnologias semelhantes. As configurações do navegador do seu dispositivo podem ser alteradas.

Para certos fins, podem ser invocados interesses legítimos ao invés de consentimento. Pode ler mais informação sobre este assunto na nossa Política de Privacidade e Cookies.